This site uses a module created by best online poker sites.

BSB police report ending November 28, 2017

Print
"11/27/2017","00:06","217CR0030540","BUSINESS CHECK","BUSINESS CHECK","2544 HARRISON LISACS TRI STOP","",""
"11/27/2017","00:12","217CR0030542","BUSINESS CHECK","BUSINESS CHECK","3700 HARRISON AVE","",""
"11/27/2017","00:22","217CR0030543","WANTED PERSON","CRIMINAL CONTEMPT","3901 HARRISON AVE","ARREST(s) MADE",""
"11/27/2017","00:32","217CR0030544","FIRE - STRUCTURE","FIRE - STRUCTURE","2317 WALNUT","",""
"11/27/2017","00:40","217CR0030545","T/S","T/S","2200 BLK WALNUT ST","",""
"11/27/2017","00:50","217CR0030546","LED BUSINESS","LED BUSINESS","435 S CRYSTAL","",""
"11/27/2017","01:03","217CR0030547","ALARM - BURGLARY","ALARM - BURGLARY","************","",""
"11/27/2017","01:20","217CR0030548","T/S","T/S","TOBOGGAN AND MAIN","",""
"11/27/2017","01:50","217CR0030549","MAN WITH A GUN","PFMA - REASONABLE APPREHENSION","800 BLK S MAIN","",""
"11/27/2017","02:07","217CR0030550","JUVENILE MISC","PFMA - REASONABLE APPREHENSION","2025 THORNTON AVE","ARREST(s) MADE",""
"11/27/2017","05:34","217CR0030552","DISTURBANCE","DISORDERLY CONDUCT","207 W PARK ST","ARREST(s) MADE",""
"11/27/2017","06:00","217CR0030553","ALARM - MEDICAL","ALARM - MEDICAL","************","",""
"11/27/2017","06:46","217CR0030554","SUSPICIOUS ACTIVITY","SUSPICIOUS ACTIVITY","SECOND AND NEVADA","",""
"11/27/2017","08:13","217CR0030555","T/S","T/S @ BURLINGTON AND CONTINENTAL","BURLINGTON AND CONTINENTAL","",""
"11/27/2017","08:22","217CR0030556","CIVIL PAPER SERVICE","CIVIL PAPER SERVICE","3545 OREGON AVE","",""
"11/27/2017","08:32","217CR0030558","PARKING COMPLAINT","PARKING COMPLAINT","910 EVANS","",""
"11/27/2017","08:34","217CR0030557","CIVIL PAPER SERVICE","CIVIL PAPER SERVICE","615 YALE AVE","",""
"11/27/2017","08:35","217CR0030559","CIVIL PAPER SERVICE","CIVIL PAPER SERVICE","519 W GALENA","",""
"11/27/2017","08:40","217CR0030560","CIVIL PAPER SERVICE","CIVIL PAPER SERVICE","126 E FIRST ST","",""
"11/27/2017","08:41","217CR0030561","LED BUSINESS","LED BUSINESS","155 W GRANITE","",""
"11/27/2017","08:52","217CR0030562","UNWANTED PERSON","UNWANTED PERSON","************","",""
"11/27/2017","08:54","217CR0030563","T/S","T/S","CONTINENTAL AND GREGSON","",""
"11/27/2017","08:54","217CR0030564","CITIZEN AID","PRIVACY IN COMMUNICATION","500 S MAIN #A","",""
"11/27/2017","09:01","217CR0030565","UNWANTED PERSON","UNWANTED PERSON","************","",""
"11/27/2017","09:32","217CR0030566","CIVIL PAPER SERVICE","CIVIL PAPER SERVICE","425 W SILVER","",""
"11/27/2017","09:50","217CR0030567","DETENTION BUSINESS","DETENTION BUSINESS","************","",""
"11/27/2017","09:56","217CR0030568","STOLEN VEHICLE","MOTOR VEHICLE THEFT","3883 HARRISON AVE","",""
"11/27/2017","10:02","217CR0030569","SUSPICIOUS ACTIVITY","SUSPICIOUS ACTIVITY","1327 W GRANITE ST","",""
"11/27/2017","10:15","217CR0030570","CIVIL PAPER SERVICE","CIVIL PAPER SERVICE","936 NEVADA","",""
"11/27/2017","10:22","217CR0030571","WELFARE CHECK","WELFARE CHECK","2045 ROBERTS","",""
"11/27/2017","10:29","217CR0030572","WANTED PERSON","CRIMINAL CONTEMPT","225 N ALASKA","ARREST(s) MADE",""
"11/27/2017","10:58","217CR0030574","LED BUSINESS","LED BUSINESS","155 W GRANITE ST","",""
"11/27/2017","10:59","217CR0030573","THEFT","THEFT, ALL OTHERS","822 W SILVER","",""
"11/27/2017","11:10","217CR0030575","HARASSMENT","HARASSMENT","815 EMPIRE","",""
"11/27/2017","11:12","217CR0030576","BURGLARY","BURGLARY","412 W MERCURY","",""
"11/27/2017","11:12","217CR0030577","CIVIL STANDBY","CIVIL STANDBY","3315 CARTER","",""
"11/27/2017","11:18","217CR0030578","THEFT","BURGLARY, NON-RESIDENCE","333 E BROADWAY","",""
"11/27/2017","11:40","217CR0030579","FRAUD","FORGERY/COUNTERFEIT","1880 HARRISON AVE","",""
"11/27/2017","11:50","217CR0030580","INFORMATION ONLY","INFORMATION ONLY","306 W SILVER","",""
"11/27/2017","11:58","217CR0030581","UNWANTED PERSON","UNWANTED PERSON","************","",""
"11/27/2017","12:17","217CR0030582","CIVIL PAPER SERVICE","CIVIL PAPER SERVICE","525 S WASHINGTON","",""
"11/27/2017","12:24","217CR0030583","CIVIL PAPER SERVICE","CIVIL PAPER SERVICE","1023 NEVADA","",""
"11/27/2017","12:26","217CR0030584","SUICIDE ATTEMPT/THREAT","SUICIDE ATTEMPT/THREAT","************","",""
"11/27/2017","12:41","217CR0030585","SUSPICIOUS ACTIVITY","SUSPICIOUS ACTIVITY","3220 HARRISON AVE","",""
"11/27/2017","12:46","217CR0030586","DISORDERLY CONDUCT","DISORDERLY CONDUCT","2000 DEWEY BLVD","",""
"11/27/2017","13:08","217CR0030587","SUICIDE ATTEMPT/THREAT","SUICIDE ATTEMPT/THREAT","************","",""
"11/27/2017","13:11","217CR0030588","DISTURBANCE","DISTURBANCE","246 E MERCURY GROUP HOME","",""
"11/27/2017","13:22","217CR0030589","HIT AND RUN","HIT AND RUN","ARGYLE AND THORNTON","",""
"11/27/2017","13:32","217CR0030590","ASSAULT","ASSAULT","************","",""
"11/27/2017","13:56","217CR0030591","T/S","T/S @ FRONT AND MARYLAND","FRONT AND MARYLAND","",""
"11/27/2017","13:57","217CR0030592","MEDICAL - EMERGENCY","MEDICAL - EMERGENCY","845 S WYOMING ST","",""
"11/27/2017","14:10","217CR0030593","MEDICAL - EMERGENCY","MEDICAL - EMERGENCY","744 EMPIRE","",""
"11/27/2017","14:13","217CR0030594","ATL","ATL","OTTAWA ST AND SHERMAN ST","",""
"11/27/2017","14:15","217CR0030595","ALL OTHER","ALL OTHER","209 SILVER BOW HOMES","",""
"11/27/2017","14:24","217CR0030597","THEFT","THEFT FROM BUILDINGS","23 LAIRD","",""
"11/27/2017","14:25","217CR0030596","T/S","SPEEDING","CONTINENTAL DR AND YALE AVE","",""
"11/27/2017","14:46","217CR0030598","T/S","NO LIABILITY INSURANCE IN EFF.","GRAND AVE AND HAYES AVE","",""
"11/27/2017","15:04","217CR0030599","THEFT","THEFT","3215 QUINCY ST","",""
"11/27/2017","15:51","217CR0030600","ACCIDENT","ACCIDENT","GLADSTONE AND LOCUST","",""
"11/27/2017","16:08","217CR0030603","HARASSMENT","HARASSMENT","731 S DAKOTA ST","",""
"11/27/2017","16:09","217CR0030604","THEFT","THEFT FROM MOTOR VEHICLE","3100 HARRISON BUTTE PLAZA MALL","",""
"11/27/2017","16:12","217CR0030605","ATL","ATL","2000 BLK HARRISON","",""
"11/27/2017","16:20","217CR0030606","ASSIST OTHER AGENCY","ASSIST OTHER AGENCY","I15 MM 132 NB","",""
"11/27/2017","16:26","217CR0030607","STOLEN VEHICLE","THEFT FROM MOTOR VEHICLE","3100 HARRISON AVE","",""
"11/27/2017","16:34","217CR0030608","HIT AND RUN","HIT AND RUN","3100 DIXON ST","",""
"11/27/2017","16:45","217CR0030609","ALL OTHER","ALL OTHER","1701 1/2 S WARREN","",""
"11/27/2017","17:28","217CR0030610","FOUND PROPERTY","FOUND PROPERTY","************","",""
"11/27/2017","17:29","217CR0030611","ASSAULT","ASSAULT","************","",""
"11/27/2017","18:38","217CR0030612","THEFT","THEFT, SHOPLIFT","2500 MASSACHUSETTS AVE","",""
"11/27/2017","19:05","217CR0030613","HIT AND RUN","HIT AND RUN","2500 MASSACHUSETTS AVE","",""
"11/27/2017","19:08","217CR0030614","ALL OTHER","ALL OTHER","2615 PHILLIPS ST","",""
"11/27/2017","19:26","217CR0030615","SUSPICIOUS ACTIVITY","SUSPICIOUS ACTIVITY","933 N MAIN ST","",""
"11/27/2017","19:40","217CR0030616","MEDICAL - EMERGENCY","MEDICAL - EMERGENCY","744 EMPIRE","",""
"11/27/2017","19:43","217CR0030617","MEDICAL - EMERGENCY","MEDICAL - EMERGENCY","3235 HARRISON AVE","",""
"11/27/2017","19:46","217CR0030618","THEFT","THEFT, ALL OTHERS","1515 OREGON AVE #515","",""
"11/27/2017","19:50","217CR0030619","ALARM - BURGLARY","ALARM - BURGLARY","************","",""
"11/27/2017","20:35","217CR0030620","SUSPICIOUS ACTIVITY","SUSPICIOUS ACTIVITY","1125 S MAIN ST","",""
"11/27/2017","20:36","217CR0030621","LOST OR STOLEN PROPERTY","LOST OR STOLEN PROPERTY","9 N MAIN ST","",""
"11/27/2017","20:46","217CR0030622","CITIZEN AID","CITIZEN AID","1324 HARRISON AE","",""
"11/27/2017","21:14","217CR0030623","UNKNOWN PROBLEM","UNKNOWN PROBLEM","1618 ELM","",""
"11/27/2017","21:26","217CR0030624","SUSPICIOUS ACTIVITY","SUSPICIOUS ACTIVITY","2320 AMHERST","",""
"11/27/2017","21:30","217CR0030625","CITIZEN AID","CITIZEN AID","400 E PARK","",""
"11/27/2017","21:50","217CR0030626","T/S","T/S","GRANITE AND ALASKA","",""
"11/27/2017","21:51","217CR0030627","WANTED PERSON","WANTED PERSON","************","",""
"11/27/2017","22:09","217CR0030628","THEFT","THEFT","","",""
"11/27/2017","22:44","217CR0030629","MEDICAL - EMERGENCY","MEDICAL - EMERGENCY","1356 SUNSET","",""
"11/27/2017","22:47","217CR0030630","SUICIDE ATTEMPT/THREAT","SUICIDE ATTEMPT/THREAT","************","",""
"11/27/2017","23:05","217CR0030631","CIVIL PAPER SERVICE","CIVIL PAPER SERVICE","1841 OREGON","",""
"11/27/2017","23:18","217CR0030632","T/S","T/S","2544 HARRISON AVE","",""
"11/27/2017","23:27","217CR0030633","T/S","T/S","2501 HARRISON AVE","",""
"11/27/2017","23:54","217CR0030634","SUSPICIOUS ACTIVITY","SUSPICIOUS ACTIVITY","25 BASIN CR RD","",""
"11/28/2017","00:07","217CR0030635","T/S","T/S","MILKEY WY AND MT HIGHLAND","",""
"11/28/2017","00:08","217CR0030636","BUSINESS CHECK","BUSINESS CHECK","1370 HARRISON","",""
"11/28/2017","00:24","217CR0030637","SUSPICIOUS ACTIVITY","SUSPICIOUS ACTIVITY","3009 IRENE","",""
"11/28/2017","00:27","217CR0030638","T/S","CRIMINAL CONTEMPT","SECOND ST AND UTAH ST","ARREST(s) MADE",""
"11/28/2017","00:39","217CR0030639","BUSINESS CHECK","BUSINESS CHECK","1000 GRIZZLY TR","",""
"11/28/2017","00:45","217CR0030640","BUSINESS CHECK","BUSINESS CHECK","FLYING J","",""
"11/28/2017","00:58","217CR0030641","SUSPICIOUS ACTIVITY","SUSPICIOUS ACTIVITY","400 BLK E MERCURY","",""
"11/28/2017","01:39","217CR0030642","MEDICAL - EMERGENCY","MEDICAL - EMERGENCY","100 GARDENS WAY CONTINENTAL G","",""
"11/28/2017","02:09","217CR0030643","FIRE - STRUCTURE","FIRE - STRUCTURE","1002 IOWA","",""
"11/28/2017","02:34","217CR0030644","T/S","OPERATING WITHOUT CURRENT REGI","THORNTON AND ARGYLE","",""
"11/28/2017","02:53","217CR0030645","HIT AND RUN","HIT AND RUN","ARGYLE AND THORNTON","",""
"11/28/2017","02:56","217CR0030646","ALARM - BURGLARY","ALARM - BURGLARY","************","",""
"11/28/2017","02:59","217CR0030647","MEDICAL - EMERGENCY","MEDICAL - EMERGENCY","1522 ELM ST","",""
"11/28/2017","03:55","217CR0030648","BUSINESS CHECK","BUSINESS CHECK","2544 HARRISON LISACS TRI STOP","",""
"11/28/2017","04:24","217CR0030649","TRAFFIC","TRAFFIC","PORPHYRY AND WASHINGTON","",""
"11/28/2017","04:34","217CR0030650","MEDICAL - EMERGENCY","MEDICAL - EMERGENCY","1022 S COLORADO","",""
"11/28/2017","05:36","217CR0030651","DISTURBANCE","DISTURBANCE","901 E FRONT ST","",""
"11/28/2017","05:47","217CR0030652","T/S","T/S @ SANTA CLAUSEAND CENTENIAL","SANTA CLAUSEAND CENTENIAL","",""
"11/28/2017","05:59","217CR0030653","T/S","T/S @ ELIZABETH WARREN AND PAXSON","ELIZABETH WARREN AND PAXSON","",""
"11/28/2017","07:28","217CR0030654","SUSPICIOUS ACTIVITY","SUSPICIOUS ACTIVITY","608 S WASHINGTON","",""
"11/28/2017","07:52","217CR0030655","T/S","T/S @ I90 AND HARRISON","I90 AND HARRISON","",""
 
Thursday the 26th. Affiliate Marketing.
Copyright 2012

©